Location: Nürtingen
(48.6244°N, 9.3469°E)
Time: 03:20:32
(UTC+01:00)

N. Korean satellite - Visible Passes

Search period start: 22 March 2019 00:00
Search period end: 01 April 2019 01:00
Orbit: 456 x 510 km, 97.2° (Epoch: 20 March)

Date Brightness Start Highest point End Pass type
(mag) Time Alt. Az. Time Alt. Az. Time Alt. Az.
22 Mar 9.9 05:40:31 10° NE 05:42:50 16° E 05:45:09 10° SE visible
26 Mar 10.0 05:34:52 10° NE 05:36:55 14° E 05:38:58 10° SE visible
30 Mar 10.1 05:29:14 10° ENE 05:30:57 13° E 05:32:39 10° ESE visible
